Time,TemperatureF,DewpointF,PressureIn,WindDirection,WindDirectionDegrees,WindSpeedMPH,WindSpeedGustMPH,Humidity,HourlyPrecipIn,Conditions,Clouds,dailyrainin,SoftwareType,DateUTC
2017-07-21 00:02:00,55.2,35.4,30.65,North,0,0.0,0.0,47,0.00,,---,0.00,VWS V15.00,2017-07-21 07:02:00,
2017-07-21 00:07:00,54.9,35.6,30.65,North,0,0.0,0.0,48,0.00,,---,0.00,VWS V15.00,2017-07-21 07:07:00,
2017-07-21 00:13:00,54.1,35.4,30.65,North,0,0.0,0.0,49,0.00,,---,0.00,VWS V15.00,2017-07-21 07:13:00,
2017-07-21 00:18:00,53.4,35.8,30.65,North,0,0.0,0.0,51,0.00,,---,0.00,VWS V15.00,2017-07-21 07:18:00,
2017-07-21 00:23:00,53.1,36.4,30.65,North,0,0.0,0.0,53,0.00,,---,0.00,VWS V15.00,2017-07-21 07:23:00,
2017-07-21 00:29:00,52.7,36.5,30.65,North,0,0.0,0.0,54,0.00,,---,0.00,VWS V15.00,2017-07-21 07:29:00,
2017-07-21 00:34:00,52.3,35.7,30.65,North,0,0.0,0.0,53,0.00,,---,0.00,VWS V15.00,2017-07-21 07:34:00,
2017-07-21 00:40:00,51.8,36.2,30.65,North,0,0.0,0.0,55,0.00,,---,0.00,VWS V15.00,2017-07-21 07:40:00,
2017-07-21 00:45:00,51.8,37.1,30.65,North,0,0.0,0.0,57,0.00,,---,0.00,VWS V15.00,2017-07-21 07:45:00,
2017-07-21 00:51:00,51.4,37.6,30.65,North,0,0.0,0.0,59,0.00,,---,0.00,VWS V15.00,2017-07-21 07:51:00,
2017-07-21 00:56:00,51.8,38.4,30.65,NW,315,0.0,0.0,60,0.00,,---,0.00,VWS V15.00,2017-07-21 07:56:00,
2017-07-21 01:02:00,51.6,37.8,30.65,NW,315,0.0,0.0,59,0.00,,---,0.00,VWS V15.00,2017-07-21 08:02:00,
2017-07-21 01:07:00,51.6,37.8,30.65,NW,315,0.0,0.0,59,0.00,,---,0.00,VWS V15.00,2017-07-21 08:07:00,
2017-07-21 01:12:00,51.1,36.8,30.65,NW,315,0.0,0.0,58,0.00,,---,0.00,VWS V15.00,2017-07-21 08:12:00,
2017-07-21 01:17:00,50.7,36.1,30.65,NW,315,0.0,0.0,57,0.00,,---,0.00,VWS V15.00,2017-07-21 08:17:00,
2017-07-21 01:23:00,50.2,36.0,30.65,NW,315,0.0,0.0,58,0.00,,---,0.00,VWS V15.00,2017-07-21 08:23:00,
2017-07-21 01:28:00,50.0,36.7,30.65,NW,315,0.0,0.0,60,0.00,,---,0.00,VWS V15.00,2017-07-21 08:28:00,
2017-07-21 01:33:00,49.6,37.2,30.65,NW,315,0.0,0.0,62,0.00,,---,0.00,VWS V15.00,2017-07-21 08:33:00,
2017-07-21 01:38:00,50.2,38.5,30.65,WNW,292,0.0,0.0,64,0.00,,---,0.00,VWS V15.00,2017-07-21 08:38:00,
2017-07-21 01:44:00,51.1,38.9,30.65,WNW,292,0.0,0.0,63,0.00,,---,0.00,VWS V15.00,2017-07-21 08:44:00,
2017-07-21 01:49:00,51.1,38.9,30.65,WNW,292,0.0,0.0,63,0.00,,---,0.00,VWS V15.00,2017-07-21 08:49:00,
2017-07-21 01:54:00,51.1,38.9,30.65,WNW,292,0.0,0.0,63,0.00,,---,0.00,VWS V15.00,2017-07-21 08:54:00,
2017-07-21 01:59:00,51.1,38.9,30.65,WNW,292,0.0,0.0,63,0.00,,---,0.00,VWS V15.00,2017-07-21 08:59:00,
2017-07-21 02:04:00,50.2,36.8,30.65,WNW,292,0.0,0.0,60,0.00,,---,0.00,VWS V15.00,2017-07-21 09:04:00,
2017-07-21 02:10:00,50.2,36.8,30.65,West,270,0.0,0.0,60,0.00,,---,0.00,VWS V15.00,2017-07-21 09:10:00,
2017-07-21 02:15:00,50.0,37.1,30.65,West,270,0.0,0.0,61,0.00,,---,0.00,VWS V15.00,2017-07-21 09:15:00,
2017-07-21 02:21:00,50.2,37.3,30.65,West,270,0.0,0.0,61,0.00,,---,0.00,VWS V15.00,2017-07-21 09:21:00,
2017-07-21 02:26:00,50.0,37.1,30.65,West,270,0.0,0.0,61,0.00,,---,0.00,VWS V15.00,2017-07-21 09:26:00,
2017-07-21 02:32:00,49.8,36.9,30.65,West,270,0.0,0.0,61,0.00,,---,0.00,VWS V15.00,2017-07-21 09:32:00,
2017-07-21 02:37:00,49.6,36.8,30.65,West,270,0.0,0.0,61,0.00,,---,0.00,VWS V15.00,2017-07-21 09:37:00,
2017-07-21 02:43:00,49.3,36.8,30.65,West,270,0.0,0.0,62,0.00,,---,0.00,VWS V15.00,2017-07-21 09:43:00,
2017-07-21 02:48:00,48.9,36.1,30.65,West,270,0.0,0.0,61,0.00,,---,0.00,VWS V15.00,2017-07-21 09:48:00,
2017-07-21 02:54:00,48.9,36.5,30.65,West,270,0.0,0.0,62,0.00,,---,0.00,VWS V15.00,2017-07-21 09:54:00,
2017-07-21 02:59:00,48.9,36.5,30.65,West,270,0.0,0.0,62,0.00,,---,0.00,VWS V15.00,2017-07-21 09:59:00,
2017-07-21 03:04:00,48.9,36.5,30.65,West,270,0.0,0.0,62,0.00,,---,0.00,VWS V15.00,2017-07-21 10:04:00,
2017-07-21 03:09:00,48.9,36.5,30.65,West,270,0.0,0.0,62,0.00,,---,0.00,VWS V15.00,2017-07-21 10:09:00,
2017-07-21 03:14:00,48.7,36.3,30.65,West,270,0.0,0.0,62,0.00,,---,0.00,VWS V15.00,2017-07-21 10:14:00,
2017-07-21 03:20:00,48.7,36.3,30.65,West,270,0.0,0.0,62,0.00,,---,0.00,VWS V15.00,2017-07-21 10:20:00,
2017-07-21 03:26:00,48.0,36.0,30.65,West,270,0.0,0.0,63,0.00,,---,0.00,VWS V15.00,2017-07-21 10:26:00,
2017-07-21 03:31:00,47.8,35.9,30.65,West,270,0.0,0.0,63,0.00,,---,0.00,VWS V15.00,2017-07-21 10:31:00,
2017-07-21 03:37:00,47.8,35.9,30.68,West,270,0.0,0.0,63,0.00,,---,0.00,VWS V15.00,2017-07-21 10:37:00,
2017-07-21 03:43:00,47.8,35.9,30.68,West,270,0.0,0.0,63,0.00,,---,0.00,VWS V15.00,2017-07-21 10:43:00,
2017-07-21 03:48:00,47.8,35.9,30.65,West,270,0.0,0.0,63,0.00,,---,0.00,VWS V15.00,2017-07-21 10:48:00,
2017-07-21 03:54:00,47.8,35.9,30.65,West,270,0.0,0.0,63,0.00,,---,0.00,VWS V15.00,2017-07-21 10:54:00,
2017-07-21 03:59:00,47.8,35.9,30.65,West,270,0.0,0.0,63,0.00,,---,0.00,VWS V15.00,2017-07-21 10:59:00,
2017-07-21 04:04:00,47.8,35.9,30.65,West,270,0.0,0.0,63,0.00,,---,0.00,VWS V15.00,2017-07-21 11:04:00,
2017-07-21 04:09:00,47.8,35.9,30.65,West,270,0.0,0.0,63,0.00,,---,0.00,VWS V15.00,2017-07-21 11:09:00,
2017-07-21 04:14:00,47.8,35.9,30.65,West,270,0.0,0.0,63,0.00,,---,0.00,VWS V15.00,2017-07-21 11:14:00,
2017-07-21 04:19:00,47.8,35.9,30.68,West,270,0.0,0.0,63,0.00,,---,0.00,VWS V15.00,2017-07-21 11:19:00,
2017-07-21 04:24:00,47.8,35.9,30.68,West,270,0.0,0.0,63,0.00,,---,0.00,VWS V15.00,2017-07-21 11:24:00,
2017-07-21 04:30:00,47.8,35.9,30.68,West,270,0.0,0.0,63,0.00,,---,0.00,VWS V15.00,2017-07-21 11:30:00,
2017-07-21 04:35:00,47.8,35.9,30.65,West,270,0.0,0.0,63,0.00,,---,0.00,VWS V15.00,2017-07-21 11:35:00,
2017-07-21 04:41:00,47.8,35.9,30.65,West,270,0.0,0.0,63,0.00,,---,0.00,VWS V15.00,2017-07-21 11:41:00,
2017-07-21 04:46:00,47.8,35.9,30.65,West,270,0.0,0.0,63,0.00,,---,0.00,VWS V15.00,2017-07-21 11:46:00,
2017-07-21 04:51:00,47.8,35.9,30.68,West,270,0.0,0.0,63,0.00,,---,0.00,VWS V15.00,2017-07-21 11:51:00,
2017-07-21 04:56:00,47.8,35.9,30.68,West,270,0.0,0.0,63,0.00,,---,0.00,VWS V15.00,2017-07-21 11:56:00,
2017-07-21 05:01:00,47.8,35.9,30.68,West,270,0.0,0.0,63,0.00,,---,0.00,VWS V15.00,2017-07-21 12:01:00,
2017-07-21 05:07:00,47.8,35.9,30.65,West,270,0.0,0.0,63,0.00,,---,0.00,VWS V15.00,2017-07-21 12:07:00,
2017-07-21 05:12:00,47.8,35.9,30.65,West,270,0.0,0.0,63,0.00,,---,0.00,VWS V15.00,2017-07-21 12:12:00,
2017-07-21 05:17:00,47.8,35.9,30.65,West,270,0.0,0.0,63,0.00,,---,0.00,VWS V15.00,2017-07-21 12:17:00,
2017-07-21 05:22:00,47.8,35.9,30.68,West,270,0.0,0.0,63,0.00,,---,0.00,VWS V15.00,2017-07-21 12:22:00,
2017-07-21 05:28:00,41.2,36.1,30.68,West,270,0.0,0.0,82,0.00,,---,0.00,VWS V15.00,2017-07-21 12:28:00,
2017-07-21 05:33:00,41.0,35.9,30.68,West,270,0.0,0.0,82,0.00,,---,0.00,VWS V15.00,2017-07-21 12:33:00,
2017-07-21 05:39:00,40.5,35.4,30.68,West,270,0.0,0.0,82,0.00,,---,0.00,VWS V15.00,2017-07-21 12:39:00,
2017-07-21 05:44:00,40.3,35.2,30.68,West,270,0.0,0.0,82,0.00,,---,0.00,VWS V15.00,2017-07-21 12:44:00,
2017-07-21 05:50:00,39.9,35.2,30.68,West,270,0.0,0.0,83,0.00,,---,0.00,VWS V15.00,2017-07-21 12:50:00,
2017-07-21 05:55:00,39.9,35.2,30.68,West,270,0.0,0.0,83,0.00,,---,0.00,VWS V15.00,2017-07-21 12:55:00,
2017-07-21 06:00:00,39.9,35.5,30.68,West,270,0.0,0.0,84,0.00,,---,0.00,VWS V15.00,2017-07-21 13:00:00,
2017-07-21 06:06:00,39.9,35.5,30.68,West,270,0.0,0.0,84,0.00,,---,0.00,VWS V15.00,2017-07-21 13:06:00,
2017-07-21 06:11:00,39.9,35.8,30.68,West,270,0.0,0.0,85,0.00,,---,0.00,VWS V15.00,2017-07-21 13:11:00,
2017-07-21 06:16:00,39.9,35.8,30.68,West,270,0.0,0.0,85,0.00,,---,0.00,VWS V15.00,2017-07-21 13:16:00,
2017-07-21 06:22:00,40.3,36.4,30.68,West,270,0.0,0.0,86,0.00,,---,0.00,VWS V15.00,2017-07-21 13:22:00,
2017-07-21 06:28:00,41.0,37.1,30.68,West,270,0.0,0.0,86,0.00,,---,0.00,VWS V15.00,2017-07-21 13:28:00,
2017-07-21 06:33:00,41.7,37.8,30.68,West,270,0.0,0.0,86,0.00,,---,0.00,VWS V15.00,2017-07-21 13:33:00,
2017-07-21 06:39:00,42.8,38.9,30.68,West,270,0.0,0.0,86,0.00,,---,0.00,VWS V15.00,2017-07-21 13:39:00,
2017-07-21 06:43:00,43.3,39.4,30.68,West,270,0.0,0.0,86,0.00,,---,0.00,VWS V15.00,2017-07-21 13:43:00,
2017-07-21 06:48:00,44.4,40.5,30.68,West,270,0.0,0.0,86,0.00,,---,0.00,VWS V15.00,2017-07-21 13:48:00,
2017-07-21 06:53:00,44.8,40.9,30.68,West,270,0.0,0.0,86,0.00,,---,0.00,VWS V15.00,2017-07-21 13:53:00,
2017-07-21 06:58:00,46.2,42.3,30.68,West,270,0.0,0.0,86,0.00,,---,0.00,VWS V15.00,2017-07-21 13:58:00,
2017-07-21 07:04:00,48.7,44.1,30.68,West,270,0.0,0.0,84,0.00,,---,0.00,VWS V15.00,2017-07-21 14:04:00,
2017-07-21 07:10:00,50.0,43.8,30.68,West,270,0.0,0.0,79,0.00,,---,0.00,VWS V15.00,2017-07-21 14:10:00,
2017-07-21 07:16:00,50.7,43.1,30.68,West,270,0.0,0.0,75,0.00,,---,0.00,VWS V15.00,2017-07-21 14:16:00,
2017-07-21 07:21:00,50.9,42.9,30.68,West,270,0.0,0.0,74,0.00,,---,0.00,VWS V15.00,2017-07-21 14:21:00,
2017-07-21 07:27:00,52.2,42.3,30.68,West,270,0.0,0.0,69,0.00,,---,0.00,VWS V15.00,2017-07-21 14:27:00,
2017-07-21 07:32:00,52.9,41.8,30.68,West,270,0.0,0.0,66,0.00,,---,0.00,VWS V15.00,2017-07-21 14:32:00,
2017-07-21 07:37:00,53.2,41.0,30.71,West,270,0.0,0.0,63,0.00,,---,0.00,VWS V15.00,2017-07-21 14:37:00,
2017-07-21 07:43:00,54.1,40.6,30.71,West,270,0.0,0.0,60,0.00,,---,0.00,VWS V15.00,2017-07-21 14:43:00,
2017-07-21 07:48:00,54.5,40.5,30.71,West,270,0.0,0.0,59,0.00,,---,0.00,VWS V15.00,2017-07-21 14:48:00,
2017-07-21 07:54:00,55.6,40.6,30.71,West,270,0.0,0.0,57,0.00,,---,0.00,VWS V15.00,2017-07-21 14:54:00,
2017-07-21 07:59:00,56.8,40.4,30.71,SW,225,0.0,0.0,54,0.00,,---,0.00,VWS V15.00,2017-07-21 14:59:00,
2017-07-21 08:05:00,58.6,39.5,30.71,SSE,158,0.0,0.0,49,0.00,,---,0.00,VWS V15.00,2017-07-21 15:05:00,
2017-07-21 08:10:00,59.7,39.5,30.71,SSE,158,0.0,0.0,47,0.00,,---,0.00,VWS V15.00,2017-07-21 15:10:00,
2017-07-21 08:16:00,61.2,39.7,30.71,South,180,0.0,0.0,45,0.00,,---,0.00,VWS V15.00,2017-07-21 15:16:00,
2017-07-21 08:21:00,61.3,39.3,30.71,SW,225,0.0,0.0,44,0.00,,---,0.00,VWS V15.00,2017-07-21 15:21:00,
2017-07-21 08:26:00,63.1,40.3,30.71,SW,225,0.0,0.0,43,0.00,,---,0.00,VWS V15.00,2017-07-21 15:26:00,
2017-07-21 08:32:00,63.1,40.3,30.71,SW,225,0.0,0.0,43,0.00,,---,0.00,VWS V15.00,2017-07-21 15:32:00,
2017-07-21 08:38:00,63.1,40.3,30.71,SW,225,0.0,0.0,43,0.00,,---,0.00,VWS V15.00,2017-07-21 15:38:00,
2017-07-21 08:43:00,63.1,40.3,30.71,SW,225,0.0,0.0,43,0.00,,---,0.00,VWS V15.00,2017-07-21 15:43:00,
2017-07-21 08:49:00,63.1,40.3,30.71,SW,225,0.0,0.0,43,0.00,,---,0.00,VWS V15.00,2017-07-21 15:49:00,
2017-07-21 08:54:00,63.1,40.3,30.71,SW,225,0.0,0.0,43,0.00,,---,0.00,VWS V15.00,2017-07-21 15:54:00,
2017-07-21 08:59:00,63.1,40.3,30.71,SW,225,0.0,0.0,43,0.00,,---,0.00,VWS V15.00,2017-07-21 15:59:00,
2017-07-21 09:05:00,65.5,39.9,30.71,NE,45,0.0,0.0,39,0.00,,---,0.00,VWS V15.00,2017-07-21 16:05:00,
2017-07-21 09:08:00,65.5,39.9,30.71,NE,45,0.0,0.0,39,0.00,,---,0.00,VWS V15.00,2017-07-21 16:08:00,
2017-07-21 09:14:00,65.5,39.9,30.71,NE,45,0.0,0.0,39,0.00,,---,0.00,VWS V15.00,2017-07-21 16:14:00,
2017-07-21 09:19:00,65.5,39.9,30.68,NE,45,0.0,0.0,39,0.00,,---,0.00,VWS V15.00,2017-07-21 16:19:00,
2017-07-21 09:24:00,66.7,39.7,30.68,East,90,0.0,0.0,37,0.00,,---,0.00,VWS V15.00,2017-07-21 16:24:00,
2017-07-21 09:29:00,66.7,39.7,30.68,East,90,0.0,0.0,37,0.00,,---,0.00,VWS V15.00,2017-07-21 16:29:00,
2017-07-21 09:35:00,66.7,39.7,30.71,East,90,0.0,0.0,37,0.00,,---,0.00,VWS V15.00,2017-07-21 16:35:00,
2017-07-21 09:41:00,69.1,40.3,30.71,ENE,68,0.0,0.0,35,0.00,,---,0.00,VWS V15.00,2017-07-21 16:41:00,
2017-07-21 09:47:00,68.7,39.2,30.71,East,90,0.0,0.0,34,0.00,,---,0.00,VWS V15.00,2017-07-21 16:47:00,
2017-07-21 09:52:00,68.7,39.2,30.68,NE,45,0.0,0.0,34,0.00,,---,0.00,VWS V15.00,2017-07-21 16:52:00,
2017-07-21 09:57:00,68.9,39.4,30.68,ENE,68,0.0,0.0,34,0.00,,---,0.00,VWS V15.00,2017-07-21 16:57:00,
2017-07-21 10:03:00,69.6,40.0,30.68,NE,45,0.0,0.0,34,0.00,,---,0.00,VWS V15.00,2017-07-21 17:03:00,
2017-07-21 10:08:00,69.4,39.9,30.68,NE,45,0.0,0.0,34,0.00,,---,0.00,VWS V15.00,2017-07-21 17:08:00,
2017-07-21 10:13:00,69.6,40.0,30.68,East,90,0.0,0.0,34,0.00,,---,0.00,VWS V15.00,2017-07-21 17:13:00,
2017-07-21 10:19:00,70.0,39.6,30.68,East,90,0.0,0.0,33,0.00,,---,0.00,VWS V15.00,2017-07-21 17:19:00,
2017-07-21 10:23:00,70.0,39.6,30.68,East,90,0.0,0.0,33,0.00,,---,0.00,VWS V15.00,2017-07-21 17:23:00,
2017-07-21 10:29:00,72.0,40.5,30.68,East,90,0.0,0.0,32,0.00,,---,0.00,VWS V15.00,2017-07-21 17:29:00,
2017-07-21 10:34:00,74.1,41.6,30.71,East,90,0.0,0.0,31,0.00,,---,0.00,VWS V15.00,2017-07-21 17:34:00,
2017-07-21 10:40:00,74.3,41.7,30.71,East,90,0.0,0.0,31,0.00,,---,0.00,VWS V15.00,2017-07-21 17:40:00,
2017-07-21 10:45:00,74.7,41.2,30.71,East,90,0.0,0.0,30,0.00,,---,0.00,VWS V15.00,2017-07-21 17:45:00,
2017-07-21 10:51:00,74.7,41.2,30.71,East,90,0.0,0.0,30,0.00,,---,0.00,VWS V15.00,2017-07-21 17:51:00,
2017-07-21 10:57:00,74.3,38.2,30.71,NE,45,0.0,0.0,27,0.00,,---,0.00,VWS V15.00,2017-07-21 17:57:00,
2017-07-21 11:02:00,73.9,38.8,30.71,NNW,338,0.0,0.0,28,0.00,,---,0.00,VWS V15.00,2017-07-21 18:02:00,
2017-07-21 11:07:00,73.9,38.8,30.68,North,0,0.0,0.0,28,0.00,,---,0.00,VWS V15.00,2017-07-21 18:07:00,
2017-07-21 11:12:00,74.7,38.5,30.68,North,0,0.0,0.0,27,0.00,,---,0.00,VWS V15.00,2017-07-21 18:12:00,
2017-07-21 11:17:00,74.7,38.5,30.68,North,0,0.0,0.0,27,0.00,,---,0.00,VWS V15.00,2017-07-21 18:17:00,
2017-07-21 11:23:00,75.4,37.2,30.68,NE,45,0.0,0.0,25,0.00,,---,0.00,VWS V15.00,2017-07-21 18:23:00,
2017-07-21 11:28:00,75.0,36.8,30.68,NE,45,0.0,0.0,25,0.00,,---,0.00,VWS V15.00,2017-07-21 18:28:00,
2017-07-21 11:33:00,75.0,36.8,30.68,East,90,0.0,0.0,25,0.00,,---,0.00,VWS V15.00,2017-07-21 18:33:00,
2017-07-21 11:38:00,75.0,36.8,30.68,East,90,0.0,0.0,25,0.00,,---,0.00,VWS V15.00,2017-07-21 18:38:00,
2017-07-21 11:43:00,75.0,36.8,30.68,East,90,0.0,0.0,25,0.00,,---,0.00,VWS V15.00,2017-07-21 18:43:00,
2017-07-21 11:49:00,77.0,37.5,30.68,NE,45,0.0,0.0,24,0.00,,---,0.00,VWS V15.00,2017-07-21 18:49:00,
2017-07-21 11:54:00,76.5,37.0,30.68,East,90,0.0,0.0,24,0.00,,---,0.00,VWS V15.00,2017-07-21 18:54:00,
2017-07-21 12:00:00,76.5,37.0,30.68,East,90,0.0,0.0,24,0.00,,---,0.00,VWS V15.00,2017-07-21 19:00:00,
2017-07-21 12:06:00,76.5,37.0,30.68,East,90,0.0,0.0,24,0.00,,---,0.00,VWS V15.00,2017-07-21 19:06:00,
2017-07-21 12:11:00,76.5,37.0,30.68,East,90,0.0,0.0,24,0.00,,---,0.00,VWS V15.00,2017-07-21 19:11:00,
2017-07-21 12:16:00,76.5,37.0,30.68,NE,45,0.0,0.0,24,0.00,,---,0.00,VWS V15.00,2017-07-21 19:16:00,
2017-07-21 12:21:00,78.6,35.5,30.68,NE,45,0.0,0.0,21,0.00,,---,0.00,VWS V15.00,2017-07-21 19:21:00,
2017-07-21 12:26:00,79.5,36.2,30.68,NE,45,0.0,0.0,21,0.00,,---,0.00,VWS V15.00,2017-07-21 19:26:00,
2017-07-21 12:32:00,80.1,36.7,30.68,NE,45,0.0,0.0,21,0.00,,---,0.00,VWS V15.00,2017-07-21 19:32:00,
2017-07-21 12:38:00,80.1,36.7,30.65,NE,45,0.0,0.0,21,0.00,,---,0.00,VWS V15.00,2017-07-21 19:38:00,
2017-07-21 12:43:00,80.1,36.7,30.65,NE,45,0.0,0.0,21,0.00,,---,0.00,VWS V15.00,2017-07-21 19:43:00,
2017-07-21 12:48:00,79.3,36.0,30.65,NE,45,0.0,0.0,21,0.00,,---,0.00,VWS V15.00,2017-07-21 19:48:00,
2017-07-21 12:54:00,79.3,36.0,30.65,NE,45,2.2,2.2,21,0.00,,---,0.00,VWS V15.00,2017-07-21 19:54:00,
2017-07-21 12:59:00,79.3,36.0,30.65,NE,45,2.2,2.2,21,0.00,,---,0.00,VWS V15.00,2017-07-21 19:59:00,
2017-07-21 13:04:00,81.0,36.2,30.65,NNE,22,0.0,3.1,20,0.00,,---,0.00,VWS V15.00,2017-07-21 20:04:00,
2017-07-21 13:10:00,80.8,36.0,30.65,West,270,0.0,0.0,20,0.00,,---,0.00,VWS V15.00,2017-07-21 20:10:00,
2017-07-21 13:15:00,80.6,35.9,30.65,ENE,68,0.0,0.0,20,0.00,,---,0.00,VWS V15.00,2017-07-21 20:15:00,
2017-07-21 13:20:00,81.9,36.9,30.65,ENE,68,0.0,0.0,20,0.00,,---,0.00,VWS V15.00,2017-07-21 20:20:00,
2017-07-21 13:25:00,81.7,36.8,30.65,NE,45,0.0,0.0,20,0.00,,---,0.00,VWS V15.00,2017-07-21 20:25:00,
2017-07-21 13:31:00,81.5,35.3,30.65,North,0,3.6,8.3,19,0.00,,---,0.00,VWS V15.00,2017-07-21 20:31:00,
2017-07-21 13:36:00,82.0,33.0,30.65,West,270,0.0,5.4,17,0.00,,---,0.00,VWS V15.00,2017-07-21 20:36:00,
2017-07-21 13:41:00,83.1,32.3,30.65,West,270,0.0,3.6,16,0.00,,---,0.00,VWS V15.00,2017-07-21 20:41:00,
2017-07-21 13:46:00,83.1,36.6,30.65,ENE,68,0.0,0.0,19,0.00,,---,0.00,VWS V15.00,2017-07-21 20:46:00,
2017-07-21 13:52:00,83.5,36.9,30.65,East,90,0.0,0.0,19,0.00,,---,0.00,VWS V15.00,2017-07-21 20:52:00,
2017-07-21 13:57:00,81.9,36.9,30.65,East,90,6.7,6.7,20,0.00,,---,0.00,VWS V15.00,2017-07-21 20:57:00,
2017-07-21 14:02:00,82.4,36.0,30.65,NNE,22,5.4,5.4,19,0.00,,---,0.00,VWS V15.00,2017-07-21 21:02:00,
2017-07-21 14:07:00,80.8,36.0,30.65,NE,45,2.2,3.1,20,0.00,,---,0.00,VWS V15.00,2017-07-21 21:07:00,
2017-07-21 14:13:00,81.0,36.2,30.65,East,90,0.0,2.7,20,0.00,,---,0.00,VWS V15.00,2017-07-21 21:13:00,
2017-07-21 14:19:00,81.1,36.3,30.65,East,90,0.0,0.0,20,0.00,,---,0.00,VWS V15.00,2017-07-21 21:19:00,
2017-07-21 14:24:00,80.8,36.0,30.62,East,90,0.0,0.0,20,0.00,,---,0.00,VWS V15.00,2017-07-21 21:24:00,
2017-07-21 14:30:00,81.3,36.5,30.62,NE,45,2.2,2.2,20,0.00,,---,0.00,VWS V15.00,2017-07-21 21:30:00,
2017-07-21 14:35:00,82.0,37.0,30.62,NW,315,0.0,0.0,20,0.00,,---,0.00,VWS V15.00,2017-07-21 21:35:00,
2017-07-21 14:40:00,82.6,36.2,30.62,ENE,68,0.0,0.0,19,0.00,,---,0.00,VWS V15.00,2017-07-21 21:40:00,
2017-07-21 14:46:00,82.8,36.3,30.62,North,0,7.2,7.2,19,0.00,,---,0.00,VWS V15.00,2017-07-21 21:46:00,
2017-07-21 14:51:00,83.1,36.6,30.65,North,0,2.7,2.7,19,0.00,,---,0.00,VWS V15.00,2017-07-21 21:51:00,
2017-07-21 14:57:00,81.9,35.6,30.65,East,90,5.8,8.3,19,0.00,,---,0.00,VWS V15.00,2017-07-21 21:57:00,
2017-07-21 15:02:00,82.2,35.9,30.65,NE,45,7.2,8.7,19,0.00,,---,0.00,VWS V15.00,2017-07-21 22:02:00,
2017-07-21 15:07:00,82.4,36.0,30.62,NE,45,8.7,8.7,19,0.00,,---,0.00,VWS V15.00,2017-07-21 22:07:00,
2017-07-21 15:12:00,82.4,36.0,30.62,NE,45,6.3,8.3,19,0.00,,---,0.00,VWS V15.00,2017-07-21 22:12:00,
2017-07-21 15:17:00,82.4,36.0,30.62,NE,45,0.0,2.2,19,0.00,,---,0.00,VWS V15.00,2017-07-21 22:17:00,
2017-07-21 15:23:00,82.8,36.3,30.62,NE,45,2.7,2.7,19,0.00,,---,0.00,VWS V15.00,2017-07-21 22:23:00,
2017-07-21 15:28:00,82.4,36.0,30.62,NE,45,0.0,0.0,19,0.00,,---,0.00,VWS V15.00,2017-07-21 22:28:00,
2017-07-21 15:33:00,82.6,36.2,30.62,NE,45,4.0,7.6,19,0.00,,---,0.00,VWS V15.00,2017-07-21 22:33:00,
2017-07-21 15:39:00,83.1,36.6,30.62,NE,45,0.0,2.2,19,0.00,,---,0.00,VWS V15.00,2017-07-21 22:39:00,
2017-07-21 15:44:00,83.1,36.6,30.62,NE,45,5.4,5.4,19,0.00,,---,0.00,VWS V15.00,2017-07-21 22:44:00,
2017-07-21 15:49:00,82.8,36.3,30.62,North,0,2.7,3.1,19,0.00,,---,0.00,VWS V15.00,2017-07-21 22:49:00,
2017-07-21 15:54:00,83.5,36.9,30.62,NE,45,3.1,3.1,19,0.00,,---,0.00,VWS V15.00,2017-07-21 22:54:00,
2017-07-21 16:00:00,84.4,36.3,30.62,North,0,2.2,2.7,18,0.00,,---,0.00,VWS V15.00,2017-07-21 23:00:00,
2017-07-21 16:05:00,84.0,37.4,30.62,NE,45,5.4,5.4,19,0.00,,---,0.00,VWS V15.00,2017-07-21 23:05:00,
2017-07-21 16:10:00,83.8,37.2,30.62,NE,45,0.0,5.8,19,0.00,,---,0.00,VWS V15.00,2017-07-21 23:10:00,
2017-07-21 16:16:00,83.7,37.1,30.62,NE,45,0.0,0.0,19,0.00,,---,0.00,VWS V15.00,2017-07-21 23:16:00,
2017-07-21 16:22:00,83.7,37.1,30.62,NE,45,4.0,4.0,19,0.00,,---,0.00,VWS V15.00,2017-07-21 23:22:00,
2017-07-21 16:27:00,83.8,37.2,30.62,NE,45,0.0,0.0,19,0.00,,---,0.00,VWS V15.00,2017-07-21 23:27:00,
2017-07-21 16:33:00,84.0,37.4,30.62,East,90,0.0,0.0,19,0.00,,---,0.00,VWS V15.00,2017-07-21 23:33:00,
2017-07-21 16:38:00,83.8,37.2,30.62,NE,45,3.6,4.5,19,0.00,,---,0.00,VWS V15.00,2017-07-21 23:38:00,
2017-07-21 16:44:00,83.8,37.2,30.62,NE,45,0.0,2.2,19,0.00,,---,0.00,VWS V15.00,2017-07-21 23:44:00,
2017-07-21 16:50:00,83.7,37.1,30.62,North,0,2.7,3.1,19,0.00,,---,0.00,VWS V15.00,2017-07-21 23:50:00,
2017-07-21 16:56:00,83.5,36.9,30.62,NE,45,5.8,7.6,19,0.00,,---,0.00,VWS V15.00,2017-07-21 23:56:00,
2017-07-21 17:01:00,83.5,36.9,30.62,NE,45,3.1,3.1,19,0.00,,---,0.00,VWS V15.00,2017-07-22 00:01:00,
2017-07-21 17:06:00,84.0,37.4,30.62,East,90,9.6,9.6,19,0.00,,---,0.00,VWS V15.00,2017-07-22 00:06:00,
2017-07-21 17:12:00,83.5,36.9,30.62,NE,45,0.0,2.2,19,0.00,,---,0.00,VWS V15.00,2017-07-22 00:12:00,
2017-07-21 17:18:00,83.3,36.8,30.62,NE,45,8.3,12.3,19,0.00,,---,0.00,VWS V15.00,2017-07-22 00:18:00,
2017-07-21 17:23:00,82.8,36.3,30.62,East,90,0.0,0.0,19,0.00,,---,0.00,VWS V15.00,2017-07-22 00:23:00,
2017-07-21 17:28:00,82.6,36.2,30.62,NE,45,4.0,5.8,19,0.00,,---,0.00,VWS V15.00,2017-07-22 00:28:00,
2017-07-21 17:34:00,83.1,36.6,30.62,North,0,3.1,4.0,19,0.00,,---,0.00,VWS V15.00,2017-07-22 00:34:00,
2017-07-21 17:39:00,83.5,32.6,30.62,ENE,68,8.3,8.3,16,0.00,,---,0.00,VWS V15.00,2017-07-22 00:39:00,
2017-07-21 17:44:00,83.5,32.6,30.62,NE,45,5.8,5.8,16,0.00,,---,0.00,VWS V15.00,2017-07-22 00:44:00,
2017-07-21 17:50:00,83.3,32.5,30.62,NE,45,7.6,10.1,16,0.00,,---,0.00,VWS V15.00,2017-07-22 00:50:00,
2017-07-21 17:55:00,82.8,32.0,30.62,NE,45,5.4,8.1,16,0.00,,---,0.00,VWS V15.00,2017-07-22 00:55:00,
2017-07-21 18:00:00,82.4,31.8,30.62,North,0,0.0,5.4,16,0.00,,---,0.00,VWS V15.00,2017-07-22 01:00:00,
2017-07-21 18:06:00,82.8,32.0,30.62,NE,45,5.8,6.3,16,0.00,,---,0.00,VWS V15.00,2017-07-22 01:06:00,
2017-07-21 18:11:00,82.9,32.2,30.62,NE,45,2.2,2.7,16,0.00,,---,0.00,VWS V15.00,2017-07-22 01:11:00,
2017-07-21 18:16:00,82.6,31.9,30.62,NE,45,0.0,2.7,16,0.00,,---,0.00,VWS V15.00,2017-07-22 01:16:00,
2017-07-21 18:21:00,82.2,33.1,30.62,NE,45,6.7,6.7,17,0.00,,---,0.00,VWS V15.00,2017-07-22 01:21:00,
2017-07-21 18:27:00,82.2,33.1,30.62,East,90,4.0,10.1,17,0.00,,---,0.00,VWS V15.00,2017-07-22 01:27:00,
2017-07-21 18:32:00,82.0,33.0,30.62,NE,45,7.6,8.1,17,0.00,,---,0.00,VWS V15.00,2017-07-22 01:32:00,
2017-07-21 18:37:00,81.7,32.7,30.62,NE,45,3.1,8.3,17,0.00,,---,0.00,VWS V15.00,2017-07-22 01:37:00,
2017-07-21 18:42:00,81.9,32.8,30.62,NE,45,5.8,10.1,17,0.00,,---,0.00,VWS V15.00,2017-07-22 01:42:00,
2017-07-21 18:48:00,81.5,32.5,30.62,North,0,3.6,8.1,17,0.00,,---,0.00,VWS V15.00,2017-07-22 01:48:00,